TimePST,TemperatureF,Dew PointF,Humidity,Sea Level PressureIn,VisibilityMPH,Wind Direction,Wind SpeedMPH,Gust SpeedMPH,PrecipitationIn,Events,Conditions,WindDirDegrees,DateUTC
12:15 AM,28.4,26.6,93,29.92,8.0,Calm,Calm,-,N/A,,Unknown,0,2012-12-13 08:15:00
12:35 AM,28.4,26.6,93,29.91,7.0,Calm,Calm,-,N/A,,Unknown,0,2012-12-13 08:35:00
12:55 AM,28.4,28.4,100,29.92,5.0,Calm,Calm,-,N/A,,Unknown,0,2012-12-13 08:55:00
1:15 AM,28.4,28.4,100,29.92,1.0,Calm,Calm,-,N/A,,Unknown,0,2012-12-13 09:15:00
1:35 AM,30.2,28.4,93,29.92,0.8,Calm,Calm,-,N/A,,Unknown,0,2012-12-13 09:35:00
1:55 AM,30.2,28.4,93,29.92,1.8,Calm,Calm,-,N/A,,Unknown,0,2012-12-13 09:55:00
2:15 AM,30.2,28.4,93,29.92,0.5,Calm,Calm,-,N/A,,Unknown,0,2012-12-13 10:15:00
2:35 AM,30.2,28.4,93,29.92,2.0,Calm,Calm,-,N/A,,Unknown,0,2012-12-13 10:35:00
2:55 AM,30.2,28.4,93,29.92,3.0,Calm,Calm,-,N/A,,Unknown,0,2012-12-13 10:55:00
3:15 AM,30.2,28.4,93,29.92,5.0,Calm,Calm,-,N/A,,Unknown,0,2012-12-13 11:15:00
3:35 AM,30.2,28.4,93,29.92,9.0,Calm,Calm,-,N/A,,Unknown,0,2012-12-13 11:35:00
3:55 AM,30.2,28.4,93,29.92,10.0,Calm,Calm,-,N/A,,Unknown,0,2012-12-13 11:55:00
4:15 AM,30.2,28.4,93,29.92,9.0,Calm,Calm,-,N/A,,Unknown,0,2012-12-13 12:15:00
4:35 AM,30.2,28.4,93,29.93,10.0,Calm,Calm,-,N/A,,Unknown,0,2012-12-13 12:35:00
4:55 AM,30.2,28.4,93,29.92,8.0,Calm,Calm,-,N/A,,Unknown,0,2012-12-13 12:55:00
5:15 AM,30.2,28.4,93,29.93,6.0,Calm,Calm,-,N/A,,Unknown,0,2012-12-13 13:15:00
5:35 AM,30.2,28.4,93,29.93,5.0,Calm,Calm,-,N/A,,Unknown,0,2012-12-13 13:35:00
5:55 AM,30.2,28.4,93,29.93,7.0,North,3.5,-,N/A,,Unknown,350,2012-12-13 13:55:00
6:15 AM,32.0,28.4,87,29.93,7.0,Calm,Calm,-,N/A,,Unknown,0,2012-12-13 14:15:00
6:35 AM,32.0,28.4,87,29.93,8.0,Calm,Calm,-,N/A,,Unknown,0,2012-12-13 14:35:00
6:55 AM,32.0,30.2,93,29.94,9.0,Calm,Calm,-,N/A,,Unknown,0,2012-12-13 14:55:00
7:15 AM,32.0,28.4,87,29.95,10.0,NNE,3.5,-,N/A,,Unknown,30,2012-12-13 15:15:00
7:35 AM,32.0,28.4,87,29.96,6.0,North,3.5,-,N/A,,Unknown,360,2012-12-13 15:35:00
7:55 AM,32.0,28.4,87,29.96,3.0,Calm,Calm,-,N/A,,Unknown,0,2012-12-13 15:55:00
8:15 AM,32.0,28.4,87,29.96,10.0,Calm,Calm,-,N/A,,Unknown,0,2012-12-13 16:15:00
8:35 AM,32.0,28.4,87,29.97,10.0,Calm,Calm,-,N/A,,Unknown,0,2012-12-13 16:35:00
8:55 AM,32.0,28.4,87,29.97,10.0,Calm,Calm,-,N/A,,Unknown,0,2012-12-13 16:55:00
9:15 AM,32.0,28.4,87,29.97,10.0,Calm,Calm,-,N/A,,Unknown,0,2012-12-13 17:15:00
9:35 AM,32.0,28.4,87,29.96,10.0,Calm,Calm,-,N/A,,Unknown,0,2012-12-13 17:35:00
9:55 AM,32.0,28.4,87,29.97,9.0,Calm,Calm,-,N/A,,Unknown,0,2012-12-13 17:55:00
10:15 AM,32.0,26.6,80,29.97,9.0,Calm,Calm,-,N/A,,Unknown,0,2012-12-13 18:15:00
10:35 AM,32.0,26.6,80,29.97,7.0,Calm,Calm,-,N/A,,Unknown,0,2012-12-13 18:35:00
10:55 AM,32.0,26.6,80,29.96,10.0,Calm,Calm,-,N/A,,Unknown,0,2012-12-13 18:55:00
11:15 AM,33.8,28.4,81,29.94,10.0,Calm,Calm,-,N/A,,Unknown,0,2012-12-13 19:15:00
11:35 AM,35.6,28.4,75,29.93,10.0,Calm,Calm,-,N/A,,Unknown,0,2012-12-13 19:35:00
11:55 AM,35.6,28.4,75,29.92,10.0,SSW,3.5,-,N/A,,Unknown,200,2012-12-13 19:55:00
12:15 PM,37.4,28.4,70,29.92,10.0,SW,4.6,-,N/A,,Unknown,220,2012-12-13 20:15:00
12:35 PM,37.4,28.4,70,29.91,10.0,SSW,4.6,-,N/A,,Unknown,200,2012-12-13 20:35:00
12:55 PM,37.4,28.4,70,29.89,10.0,Calm,Calm,-,N/A,,Unknown,0,2012-12-13 20:55:00
1:15 PM,39.2,28.4,65,29.88,10.0,SSW,3.5,-,N/A,,Unknown,210,2012-12-13 21:15:00
1:35 PM,41.0,30.2,65,29.88,10.0,SSW,4.6,-,N/A,,Unknown,200,2012-12-13 21:35:00
1:55 PM,41.0,28.4,61,29.87,10.0,Calm,Calm,-,N/A,,Unknown,0,2012-12-13 21:55:00
2:15 PM,41.0,28.4,61,29.86,10.0,Calm,Calm,-,N/A,,Unknown,0,2012-12-13 22:15:00
2:35 PM,41.0,28.4,61,29.86,10.0,SW,4.6,-,N/A,,Unknown,220,2012-12-13 22:35:00
3:15 PM,42.8,30.2,61,29.85,10.0,South,3.5,-,N/A,,Unknown,190,2012-12-13 23:15:00
3:55 PM,42.8,28.4,57,29.85,10.0,Calm,Calm,-,N/A,,Unknown,0,2012-12-13 23:55:00
4:15 PM,39.2,30.2,70,29.84,10.0,Calm,Calm,-,N/A,,Unknown,0,2012-12-14 00:15:00
4:35 PM,37.4,30.2,75,29.85,10.0,NE,3.5,-,N/A,,Unknown,50,2012-12-14 00:35:00
4:55 PM,35.6,30.2,81,29.85,9.0,Calm,Calm,-,N/A,,Unknown,0,2012-12-14 00:55:00
5:15 PM,33.8,28.4,81,29.85,9.0,Calm,Calm,-,N/A,,Unknown,0,2012-12-14 01:15:00
5:35 PM,32.0,28.4,87,29.85,9.0,Calm,Calm,-,N/A,,Unknown,0,2012-12-14 01:35:00
5:55 PM,32.0,28.4,87,29.85,9.0,NNE,3.5,-,N/A,,Unknown,20,2012-12-14 01:55:00
6:15 PM,30.2,28.4,93,29.85,10.0,Calm,Calm,-,N/A,,Unknown,0,2012-12-14 02:15:00
6:35 PM,30.2,28.4,93,29.85,10.0,Calm,Calm,-,N/A,,Unknown,0,2012-12-14 02:35:00
6:55 PM,28.4,26.6,93,29.85,10.0,Calm,Calm,-,N/A,,Unknown,0,2012-12-14 02:55:00
7:15 PM,28.4,26.6,93,29.85,10.0,NNE,3.5,-,N/A,,Unknown,30,2012-12-14 03:15:00
7:35 PM,28.4,26.6,93,29.84,10.0,Calm,Calm,-,N/A,,Unknown,0,2012-12-14 03:35:00
7:55 PM,28.4,26.6,93,29.84,10.0,Calm,Calm,-,N/A,,Unknown,0,2012-12-14 03:55:00
8:15 PM,28.4,26.6,93,29.85,10.0,Calm,Calm,-,N/A,,Unknown,0,2012-12-14 04:15:00
8:35 PM,28.4,26.6,93,29.85,10.0,Calm,Calm,-,N/A,,Unknown,0,2012-12-14 04:35:00
8:55 PM,26.6,26.6,100,29.85,8.0,North,3.5,-,N/A,,Unknown,10,2012-12-14 04:55:00
9:15 PM,26.6,26.6,100,29.84,5.0,Calm,Calm,-,N/A,,Unknown,0,2012-12-14 05:15:00
9:35 PM,26.6,26.6,100,29.84,6.0,Calm,Calm,-,N/A,,Unknown,0,2012-12-14 05:35:00
9:55 PM,26.6,24.8,93,29.84,10.0,Calm,Calm,-,N/A,,Unknown,0,2012-12-14 05:55:00
10:15 PM,26.6,24.8,93,29.84,7.0,Calm,Calm,-,N/A,,Unknown,0,2012-12-14 06:15:00
10:35 PM,26.6,24.8,93,29.84,9.0,Calm,Calm,-,N/A,,Unknown,0,2012-12-14 06:35:00
10:55 PM,26.6,24.8,93,29.84,7.0,Calm,Calm,-,N/A,,Unknown,0,2012-12-14 06:55:00
11:15 PM,26.6,26.6,100,29.83,5.0,Calm,Calm,-,N/A,,Unknown,0,2012-12-14 07:15:00
11:35 PM,26.6,24.8,93,29.83,7.0,Calm,Calm,-,N/A,,Unknown,0,2012-12-14 07:35:00
11:55 PM,26.6,26.6,100,29.83,9.0,Calm,Calm,-,N/A,,Unknown,0,2012-12-14 07:55:00